[[{"header":{"parameterUnit":"m.s-1","parameterCategory":2,"la1":30.2991,"la2":30.254,"lo1":-89.0895,"lo2":-89.0444,"dy":0.0017,"dx":0.0017,"nx":28,"ny":28,"refTime":"2023-07-23T03:00:00:Z","depth":"0","parameterNumber":2,"parameterNumberName":"U-component_of_CURRENTS"},"data":[0,0,0,0,0,0,0,0,0,0,0,0,0,0,0,0,0,0,0,0,0,0,0,0,0,0,0,0,0,0,0,0,0,0,0,0,0,0,0,0,0,0,0,0,0,0,0,0,0,0,0,0,0,0,0,0,0,0,0.2661,0.2662,0,0.2708,0.2708,0.2708,0.2706,0.2705,0.2705,0.2704,0.2795,0.2798,0.2801,0,0,0,0,0,0,0,0,0,0,0,0,0,0.2659,0.2658,0.2661,0.2662,0.2663,0.2708,0.2708,0.2708,0.2706,0.2705,0.2705,0.2704,0.2794,0.2798,0.2801,0,0,0,0,0,0,0,0,0,0,0,0,0,0.2675,0.2658,0.2661,0.2669,0.267,0.2708,0.2708,0.2708,0.2706,0.2705,0.2704,0.2704,0.2793,0.2797,0.2801,0.284,0,0,0.2814,0.2816,0,0,0,0,0,0,0,0,0.2674,0.2674,0.2667,0.2669,0.267,0.2703,0.2741,0.2755,0.2706,0.2689,0.2704,0.2704,0.2771,0.2777,0.2782,0.2844,0.2848,0.2815,0.2817,0.2819,0.282,0,0,0,0,0,0,0,0.2673,0.2673,0.2677,0.2668,0.267,0.2701,0.2701,0.2743,0.2731,0.2691,0.2691,0.2701,0.2771,0.2778,0.2784,0.2849,0.2814,0.2818,0.2821,0.2822,0.2979,0.2981,0,0,0,0,0,0,0.2669,0.2671,0.2675,0.2678,0.2674,0.2701,0.2702,0.2691,0.273,0.2736,0.2702,0.2701,0.2771,0.2779,0.2788,0.2849,0.2819,0.2823,0.2825,0.2978,0.298,0.2982,0,0,0,0,0,0,0.2668,0.2668,0.2673,0.268,0.2683,0.2702,0.2689,0.2692,0.2702,0.2739,0.2744,0.271,0.2771,0.2782,0.2836,0.2852,0.2825,0.2829,0.2976,0.2978,0.2981,0.2964,0,0,0,0,0,0,0.2667,0.2666,0.2656,0.2679,0.2683,0.2707,0.269,0.2693,0.271,0.271,0.2748,0.2755,0.2771,0.283,0.284,0.2858,0.2832,0.2974,0.2977,0.298,0.2963,0.2966,0.2968,0,0,0,0,0,0.2667,0.2655,0.2654,0.2656,0.2666,0.2708,0.2713,0.2723,0.2712,0.2727,0.2751,0.2754,0.2857,0.2835,0.2847,0.2865,0.2972,0.2976,0.298,0.2961,0.2965,0.2968,0,0,0,0,0,0,0.2652,0.2655,0.2654,0.2644,0.268,0.2709,0.2721,0.2728,0.2757,0.2755,0.2777,0.2788,0.2842,0.2864,0.2839,0.2923,0.2915,0.2921,0.2897,0.2901,0.2904,0.2879,0.2835,0,0,0,0,0,0.2644,0.264,0.2659,0.2663,0.2671,0.2697,0.2712,0.2726,0.2756,0.2766,0.2798,0.2832,0.2868,0.2891,0.2932,0.298,0.3004,0.3002,0.3005,0.3007,0.2997,0.3071,0.3079,0.2994,0.2994,0.2994,0,0,0.2651,0.2648,0.2651,0.2662,0.2683,0.2706,0.2704,0.2736,0.2758,0.2775,0.2818,0.2849,0.2885,0.2934,0.296,0.2953,0.3043,0.3011,0.3012,0.3002,0.3076,0.3084,0.3091,0.2996,0.2996,0.2995,0,0,0.2658,0.265,0.2643,0.2673,0.2703,0.2723,0.2733,0.277,0.2782,0.2832,0.2845,0.2883,0.2949,0.297,0.2986,0.3035,0.3059,0.3056,0.3047,0.3119,0.3126,0.3133,0.3163,0.3172,0.3054,0.3054,0.3054,0,0.2662,0.2652,0.2659,0.2668,0.2697,0.2728,0.2749,0.2771,0.2829,0.2843,0.2849,0.2929,0.296,0.2999,0.301,0.3038,0.3074,0.3024,0.3121,0.3128,0.3135,0.3164,0.3175,0.3054,0.3054,0.3054,0.3054,0,0.2664,0.2668,0.2677,0.2691,0.2724,0.276,0.2792,0.2826,0.2846,0.2866,0.2917,0.2956,0.2997,0.3018,0.3024,0.3085,0.3092,0.3116,0.3103,0.3142,0.3171,0.3182,0.3054,0.3054,0.3054,0.3054,0,0,0.2642,0.2667,0.2672,0.2687,0.2741,0.2768,0.2811,0.285,0.2863,0.2915,0.294,0.2989,0.3,0.302,0.3041,0.3092,0.3164,0.312,0.3124,0.3132,0.3304,0.3282,0.3291,0.3214,0.3217,0.3218,0.3299,0,0.2644,0.266,0.2676,0.2721,0.274,0.279,0.2821,0.2865,0.2899,0.2936,0.2965,0.3002,0.3002,0.3022,0.3073,0.3149,0.3195,0.3138,0.3279,0.3282,0.3245,0.3305,0.3318,0.339,0.331,0.3312,0.3313,0,0.2623,0.2648,0.2673,0.2725,0.2734,0.2763,0.2822,0.2857,0.2909,0.2935,0.2971,0.2999,0.3057,0.3066,0.3191,0.316,0.3225,0.3278,0.3284,0.3274,0.3282,0.3344,0.3413,0.3252,0.333,0.3329,0.3328,0,0.259,0.2638,0.2656,0.2682,0.2744,0.2762,0.2798,0.2852,0.2873,0.2937,0.2962,0.3027,0.3066,0.3166,0.3247,0.3242,0.339,0.3404,0.3436,0.3433,0.3475,0.3473,0.3391,0.3503,0.3502,0.3502,0.3502,0,0.2569,0.2589,0.2639,0.2657,0.2683,0.2737,0.2758,0.2803,0.2858,0.2881,0.295,0.2982,0.3101,0.3185,0.3266,0.3374,0.341,0.3439,0.3465,0.3468,0.3464,0.3349,0.3299,0.3505,0.3504,0.3504,0.3503,0,0.2521,0.2551,0.2578,0.2643,0.2658,0.2677,0.2731,0.2746,0.281,0.2851,0.2874,0.297,0.3086,0.3187,0.3348,0.3392,0.3446,0.3533,0.3498,0.3518,0.3387,0.3338,0.3315,0.3261,0.359,0.359,0.3591,0,0.2495,0.2502,0.2556,0.2559,0.2583,0.2619,0.2635,0.2711,0.2734,0.2835,0.2851,0.2969,0.3036,0.3239,0.3382,0.3527,0.3441,0.3591,0.3581,0.3376,0.3343,0.3268,0.3218,0.363,0.3631,0.3631,0.3631,0,0.2456,0.2464,0.2482,0.2495,0.2507,0.254,0.2579,0.2599,0.2685,0.2727,0.2804,0.2872,0.3077,0.3219,0.3396,0.3512,0.3467,0.3599,0.3429,0.3395,0.3274,0.3236,0.3535,0.3634,0.3634,0.3634,0.3634,0.3634,0.2409,0.2407,0.2409,0.2419,0.2433,0.246,0.247,0.2516,0.2555,0.2606,0.2718,0.2795,0.3035,0.3301,0.3402,0.3505,0.3469,0.3458,0.3425,0.3371,0.3284,0.3549,0.3647,0.3647,0.3647,0.3647,0.3646,0,0.2337,0.2333,0.2336,0.2339,0.2332,0.2376,0.2419,0.2415,0.2438,0.2498,0.2556,0.2752,0.2947,0.3162,0.3367,0.3309,0.3314,0.3228,0.3119,0.3088,0.3373,0.3332,0.3315,0.3315,0.3315,0.3316,0.3316,0.3316,0.2283,0.2249,0.2262,0.2234,0.2246,0.2239,0.2262,0.2259,0.2286,0.2298,0.2352,0.2433,0.2684,0.2922,0.3005,0.3041,0.2886,0.2875,0.2764,0.293,0.2947,0.2963,0.2906,0.28,0.2799,0.2469,0.2466,0.2464]},{"header":{"parameterUnit":"m.s-1","parameterCategory":2,"la1":30.2991,"la2":30.254,"lo1":-89.0895,"lo2":-89.0444,"dy":0.0017,"dx":0.0017,"nx":28,"ny":28,"refTime":"2023-07-23T03:00:00:Z","depth":"0","parameterNumber":3,"parameterNumberName":"V-component_of_CURRENTS"},"data":[0,0,0,0,0,0,0,0,0,0,0,0,0,0,0,0,0,0,0,0,0,0,0,0,0,0,0,0,0,0,0,0,0,0,0,0,0,0,0,0,0,0,0,0,0,0,0,0,0,0,0,0,0,0,0,0,0,0,-0.0595,-0.0595,0,-0.0602,-0.0602,-0.0602,-0.0617,-0.0617,-0.0617,-0.0617,-0.0662,-0.0663,-0.0664,0,0,0,0,0,0,0,0,0,0,0,0,0,-0.0642,-0.0641,-0.0595,-0.0595,-0.0595,-0.0602,-0.0602,-0.0602,-0.0617,-0.0617,-0.0617,-0.0617,-0.0662,-0.0663,-0.0664,0,0,0,0,0,0,0,0,0,0,0,0,0,-0.0633,-0.064,-0.0595,-0.0603,-0.0603,-0.0602,-0.0602,-0.0602,-0.0616,-0.0617,-0.0617,-0.0617,-0.0661,-0.0663,-0.0664,-0.0667,0,0,-0.0669,-0.067,0,0,0,0,0,0,0,0,-0.0633,-0.0631,-0.0602,-0.0602,-0.0603,-0.0608,-0.0635,-0.0626,-0.0616,-0.0612,-0.0617,-0.0618,-0.0647,-0.065,-0.0651,-0.0669,-0.0671,-0.0669,-0.067,-0.0671,-0.0671,0,0,0,0,0,0,0,-0.0634,-0.0631,-0.0599,-0.0602,-0.0602,-0.0622,-0.062,-0.0633,-0.0629,-0.0613,-0.0614,-0.0613,-0.0648,-0.0649,-0.0652,-0.0671,-0.0669,-0.067,-0.0671,-0.0672,-0.0689,-0.0689,0,0,0,0,0,0,-0.0629,-0.0631,-0.0599,-0.0599,-0.0619,-0.062,-0.0619,-0.0607,-0.0628,-0.0631,-0.0613,-0.0614,-0.0646,-0.065,-0.0654,-0.0652,-0.0671,-0.0672,-0.0673,-0.069,-0.0689,-0.0689,0,0,0,0,0,0,-0.0629,-0.0625,-0.0598,-0.0616,-0.0614,-0.0619,-0.0605,-0.0607,-0.0611,-0.0627,-0.0631,-0.0616,-0.0647,-0.0651,-0.0662,-0.0654,-0.0673,-0.0674,-0.069,-0.0689,-0.0689,-0.0653,0,0,0,0,0,0,-0.063,-0.0625,-0.062,-0.0615,-0.0612,-0.0597,-0.0605,-0.0607,-0.061,-0.0611,-0.0632,-0.0636,-0.0647,-0.0659,-0.0663,-0.0657,-0.0675,-0.0691,-0.069,-0.0689,-0.0655,-0.0651,-0.0648,0,0,0,0,0,-0.0632,-0.0619,-0.0619,-0.0615,-0.0602,-0.0597,-0.0597,-0.0604,-0.061,-0.061,-0.0621,-0.0635,-0.0657,-0.066,-0.0665,-0.0659,-0.0691,-0.069,-0.0689,-0.0656,-0.0652,-0.0648,0,0,0,0,0,0,-0.0634,-0.0619,-0.0619,-0.0601,-0.06,-0.0599,-0.0599,-0.0604,-0.0612,-0.0614,-0.0632,-0.0637,-0.0642,-0.0655,-0.0658,-0.0661,-0.0676,-0.0676,-0.0649,-0.0645,-0.0642,-0.0626,-0.0676,0,0,0,0,0,-0.0632,-0.062,-0.0611,-0.06,-0.0596,-0.0598,-0.0599,-0.0601,-0.0605,-0.0609,-0.0623,-0.0635,-0.0641,-0.0647,-0.0658,-0.0661,-0.0669,-0.0659,-0.0656,-0.0653,-0.0642,-0.0649,-0.0645,-0.0686,-0.0686,-0.0686,0,0,-0.0629,-0.0621,-0.0614,-0.0601,-0.0599,-0.0589,-0.06,-0.0595,-0.0588,-0.0613,-0.0613,-0.0626,-0.064,-0.064,-0.0644,-0.0651,-0.0646,-0.0652,-0.0649,-0.064,-0.0647,-0.0643,-0.064,-0.0685,-0.0685,-0.0685,0,0,-0.0617,-0.061,-0.0595,-0.0593,-0.0588,-0.0586,-0.0584,-0.0582,-0.0583,-0.0584,-0.0596,-0.0602,-0.0619,-0.0621,-0.0625,-0.0611,-0.0629,-0.0617,-0.0587,-0.0593,-0.059,-0.0587,-0.0593,-0.0591,-0.0614,-0.0614,-0.0614,0,-0.0619,-0.0593,-0.0593,-0.0581,-0.0575,-0.0582,-0.0565,-0.0566,-0.057,-0.0565,-0.058,-0.0588,-0.0606,-0.0595,-0.0589,-0.0603,-0.0609,-0.0601,-0.0589,-0.0586,-0.0584,-0.0591,-0.0589,-0.0612,-0.0613,-0.0613,-0.0613,0,-0.0593,-0.0578,-0.057,-0.0554,-0.0548,-0.0537,-0.0532,-0.0532,-0.0537,-0.0534,-0.053,-0.0549,-0.0554,-0.056,-0.057,-0.0558,-0.0569,-0.0585,-0.0597,-0.0577,-0.0586,-0.0585,-0.061,-0.061,-0.0611,-0.0611,0,0,-0.0581,-0.0556,-0.0554,-0.0538,-0.0532,-0.0519,-0.051,-0.0493,-0.048,-0.049,-0.0473,-0.0485,-0.0496,-0.05,-0.0517,-0.0519,-0.0513,-0.054,-0.0541,-0.0544,-0.0525,-0.0536,-0.0536,-0.0528,-0.0528,-0.0527,-0.0538,0,-0.0562,-0.0529,-0.0523,-0.0493,-0.0471,-0.0476,-0.0462,-0.0452,-0.0452,-0.0442,-0.0452,-0.0447,-0.0473,-0.0476,-0.0481,-0.0504,-0.0508,-0.0509,-0.0546,-0.0547,-0.0557,-0.0534,-0.0474,-0.0479,-0.0537,-0.0537,-0.0537,0,-0.0529,-0.0516,-0.0479,-0.0449,-0.044,-0.0426,-0.0402,-0.0393,-0.0384,-0.0385,-0.0385,-0.0397,-0.0397,-0.0428,-0.0451,-0.045,-0.0481,-0.0501,-0.0503,-0.0522,-0.0555,-0.0508,-0.0474,-0.0475,-0.0535,-0.0535,-0.0535,0,-0.0505,-0.0477,-0.0444,-0.0437,-0.0412,-0.0396,-0.0385,-0.0373,-0.0359,-0.035,-0.034,-0.0348,-0.0352,-0.0385,-0.0429,-0.0441,-0.0455,-0.0483,-0.0521,-0.0522,-0.0482,-0.0481,-0.0449,-0.0499,-0.0499,-0.0499,-0.0499,0,-0.0474,-0.0448,-0.043,-0.0415,-0.0377,-0.037,-0.0336,-0.0329,-0.0317,-0.0292,-0.031,-0.0291,-0.0341,-0.0358,-0.0407,-0.0453,-0.0443,-0.0504,-0.0521,-0.0469,-0.0466,-0.0475,-0.0535,-0.0499,-0.0499,-0.0499,-0.0499,0,-0.044,-0.0429,-0.0394,-0.0371,-0.036,-0.0335,-0.0307,-0.0288,-0.0279,-0.0251,-0.0245,-0.0246,-0.0262,-0.0314,-0.0364,-0.0422,-0.051,-0.049,-0.0424,-0.0433,-0.0483,-0.0545,-0.0718,-0.0742,-0.0534,-0.0535,-0.0535,0,-0.0414,-0.0394,-0.0365,-0.0347,-0.0334,-0.0303,-0.0282,-0.027,-0.0253,-0.0218,-0.0201,-0.0201,-0.0188,-0.0261,-0.034,-0.0418,-0.0509,-0.0446,-0.0463,-0.0465,-0.0545,-0.0703,-0.0721,-0.0395,-0.0394,-0.0394,-0.0393,0,-0.0376,-0.037,-0.0349,-0.0317,-0.029,-0.0258,-0.0232,-0.0211,-0.0193,-0.0155,-0.011,-0.0092,-0.0144,-0.0159,-0.0271,-0.035,-0.0502,-0.0436,-0.0443,-0.0437,-0.0601,-0.0636,-0.0416,-0.0386,-0.0387,-0.0387,-0.0388,-0.0388,-0.0354,-0.0336,-0.0316,-0.0283,-0.0253,-0.0218,-0.0183,-0.015,-0.01,-0.0011,-0.0014,0.0092,0.0044,-0.0082,-0.022,-0.036,-0.0482,-0.0383,-0.0459,-0.0619,-0.0643,-0.0415,-0.0407,-0.0408,-0.0408,-0.0409,-0.041,0,-0.0332,-0.0315,-0.0284,-0.0244,-0.0208,-0.02,-0.015,-0.0099,-0.0022,0.0107,0.0183,0.0323,0.0234,0.0094,-0.0103,-0.0285,-0.0454,-0.0393,-0.0544,-0.0558,-0.0314,-0.0299,-0.0259,-0.0259,-0.0259,-0.0259,-0.0259,-0.0259,-0.0317,-0.0294,-0.0281,-0.0218,-0.0186,-0.0127,-0.0094,-0.0001,0.011,0.0341,0.0519,0.0635,0.0663,0.0193,-0.012,-0.0258,-0.0476,-0.0602,-0.0686,-0.0421,-0.0424,-0.0426,-0.0419,-0.0406,-0.0406,-0.089,-0.0894,-0.0897]}],[{"header":{"parameterUnit":"m.s-1","parameterCategory":2,"la1":30.2991,"la2":30.254,"lo1":-89.0895,"lo2":-89.0444,"dy":0.0017,"dx":0.0017,"nx":28,"ny":28,"refTime":"2023-07-23T03:00:00:Z","depth":"2","parameterNumber":2,"parameterNumberName":"U-component_of_CURRENTS"},"data":[0,0,0,0,0,0,0,0,0,0,0,0,0,0,0,0,0,0,0,0,0,0,0,0,0,0,0,0,0,0,0,0,0,0,0,0,0,0,0,0,0,0,0,0,0,0,0,0,0,0,0,0,0,0,0,0,0,0,-0.0081,-0.0081,0,-0.0041,-0.0041,-0.0041,-0.0028,-0.0027,-0.0027,-0.0027,-0.004,-0.004,-0.0041,0,0,0,0,0,0,0,0,0,0,0,0,0,-0.0171,-0.017,-0.0082,-0.0081,-0.008,-0.0041,-0.0041,-0.004,-0.0028,-0.0027,-0.0027,-0.0027,-0.004,-0.004,-0.0041,0,0,0,0,0,0,0,0,0,0,0,0,0,-0.0135,-0.0169,-0.0082,-0.0066,-0.0064,-0.0041,-0.0041,-0.004,-0.0028,-0.0027,-0.0027,-0.0027,-0.004,-0.004,-0.0041,-0.0049,0,0,-0.0043,-0.0043,0,0,0,0,0,0,0,0,-0.0137,-0.0132,-0.0069,-0.0067,-0.0065,-0.0036,-0.0077,-0.0045,-0.0028,-0.0045,-0.0027,-0.0027,-0.0042,-0.0042,-0.0039,-0.005,-0.005,-0.0043,-0.0044,-0.0044,-0.0044,0,0,0,0,0,0,0,-0.0139,-0.0134,-0.0069,-0.0068,-0.0066,-0.0069,-0.0064,-0.0071,-0.0049,-0.0044,-0.0042,-0.0032,-0.0041,-0.0038,-0.0039,-0.005,-0.0043,-0.0044,-0.0044,-0.0045,0.0024,0.0026,0,0,0,0,0,0,-0.0136,-0.0136,-0.007,-0.0067,-0.0097,-0.0067,-0.0062,-0.0048,-0.0047,-0.0045,-0.0032,-0.0031,-0.0037,-0.0038,-0.004,0.0052,-0.0044,-0.0045,-0.0045,0.0021,0.0024,0.0026,0,0,0,0,0,0,-0.0138,-0.0131,-0.0072,-0.0098,-0.0091,-0.0065,-0.0051,-0.0048,-0.0016,-0.0037,-0.0037,-0.0,-0.0037,-0.0039,-0.0002,0.0048,-0.0045,-0.0046,0.0019,0.0022,0.0025,0.0171,0,0,0,0,0,0,-0.0141,-0.0132,-0.0113,-0.0098,-0.0089,-0.0028,-0.0051,-0.0047,-0.001,-0.0008,-0.0011,-0.0013,-0.0037,0.0,-0.0002,0.0045,-0.0046,0.0016,0.002,0.0024,0.0163,0.0179,0.0192,0,0,0,0,0,-0.0144,-0.0116,-0.0112,-0.0103,-0.0066,-0.0025,-0.002,-0.0006,-0.0009,0.002,0.0026,-0.0012,0.0024,0.0002,-0.0001,0.0047,0.0014,0.0019,0.0024,0.0157,0.0176,0.0192,0,0,0,0,0,0,-0.0137,-0.0111,-0.0107,-0.0069,-0.0036,-0.0021,0.0011,0.0014,0.0041,0.0049,0.002,0.0019,0.007,0.0037,0.0013,0.0078,0.0011,0.0016,0.0113,0.0131,0.0145,0.0159,-0.0047,0,0,0,0,0,-0.0129,-0.0102,-0.0075,-0.0041,-0.0018,-0.0,0.0021,0.0035,0.0055,0.0068,0.0069,0.007,0.0083,0.0092,0.0094,0.0129,0.0113,0.0156,0.017,0.0183,0.0193,0.0223,0.0241,0.0043,0.0043,0.0043,0,0,-0.0116,-0.0097,-0.0081,-0.0037,-0.001,0.0037,0.0014,0.0066,0.0106,0.0061,0.0124,0.0124,0.0105,0.0154,0.0172,0.0136,0.0234,0.0189,0.02,0.0203,0.023,0.0249,0.0266,0.0046,0.0046,0.0045,0,0,-0.0073,-0.0054,-0.0014,0.002,0.0071,0.0084,0.0108,0.0147,0.0169,0.0222,0.0208,0.0245,0.0254,0.0263,0.0262,0.0354,0.0312,0.0353,0.0437,0.0467,0.0484,0.0498,0.0519,0.0534,0.0357,0.0358,0.0358,0,-0.0059,-0.0004,0.0007,0.006,0.0097,0.0112,0.0172,0.0198,0.0245,0.0272,0.0262,0.0318,0.0306,0.0366,0.0406,0.0388,0.0395,0.0375,0.0488,0.0501,0.0514,0.053,0.0545,0.0365,0.0364,0.0364,0.0363,0,0.0017,0.0066,0.0101,0.0166,0.0204,0.0264,0.03,0.0346,0.037,0.0391,0.0466,0.0468,0.0498,0.0507,0.0487,0.0574,0.0549,0.0507,0.0447,0.0543,0.0554,0.0567,0.0376,0.0373,0.0371,0.0369,0,0,0.0046,0.0132,0.015,0.0191,0.0268,0.0304,0.0381,0.0448,0.0497,0.0548,0.0614,0.0661,0.0667,0.0667,0.0656,0.0688,0.0789,0.0649,0.0647,0.0674,0.0864,0.0808,0.0816,0.0775,0.0777,0.078,0.0843,0,0.011,0.0205,0.0238,0.0339,0.0395,0.0432,0.0493,0.0552,0.0596,0.0662,0.0689,0.0743,0.0724,0.0751,0.0791,0.0782,0.0827,0.0775,0.0761,0.0761,0.0704,0.083,0.0677,0.0717,0.0855,0.0857,0.0858,0,0.0188,0.0237,0.0335,0.0416,0.0445,0.0502,0.0595,0.0654,0.0737,0.0772,0.0843,0.0856,0.0933,0.0886,0.0955,0.0928,0.0922,0.0909,0.091,0.0813,0.0729,0.0639,0.0734,0.0878,0.0877,0.0875,0.0874,0,0.0205,0.031,0.038,0.0416,0.0508,0.0558,0.0609,0.0694,0.0741,0.085,0.0888,0.0976,0.101,0.1041,0.103,0.1008,0.108,0.103,0.0977,0.0972,0.0813,0.0789,0.1087,0.1086,0.1086,0.1086,0.1086,0,0.0262,0.0327,0.0391,0.0437,0.0514,0.0576,0.0664,0.0728,0.0813,0.087,0.0946,0.0994,0.1052,0.1088,0.108,0.1078,0.1123,0.1025,0.1,0.086,0.0841,0.0942,0.0925,0.1088,0.1088,0.1088,0.1087,0,0.0289,0.0334,0.0415,0.0502,0.0528,0.0586,0.0677,0.0729,0.0818,0.0894,0.0931,0.1028,0.11,0.1133,0.1173,0.1124,0.1126,0.1104,0.0937,0.0892,0.0988,0.0977,0.1078,0.1076,0.1076,0.1075,0.1074,0,0.0316,0.036,0.0443,0.047,0.0516,0.0593,0.0636,0.0728,0.0773,0.0896,0.0921,0.1031,0.1068,0.1122,0.1101,0.1104,0.1136,0.0934,0.0863,0.103,0.0995,0.0986,0.0977,0.0715,0.0711,0.0708,0.0706,0,0.0359,0.0384,0.0427,0.0475,0.0521,0.0572,0.0638,0.0661,0.076,0.0825,0.091,0.0953,0.1017,0.0972,0.0971,0.0929,0.0928,0.0874,0.111,0.0737,0.0692,0.0656,0.0658,0.068,0.0683,0.0685,0.0686,0.0687,0.0371,0.0393,0.0428,0.0471,0.0512,0.0535,0.0558,0.0614,0.0669,0.0733,0.0791,0.0815,0.0722,0.069,0.0736,0.081,0.0805,0.0707,0.0714,0.0725,0.0668,0.0624,0.0588,0.059,0.0592,0.0593,0.0594,0,0.0368,0.0384,0.0419,0.045,0.0467,0.0515,0.0544,0.0538,0.0575,0.0651,0.0688,0.0481,0.044,0.0522,0.0588,0.0568,0.0571,0.057,0.0541,0.0558,0.0575,0.0514,0.0393,0.0395,0.0396,0.0398,0,0,0.0359,0.0369,0.0379,0.039,0.0423,0.0428,0.0436,0.0439,0.0473,0.0454,0.0468,0.0347,0.0375,0.0324,0.031,0.0438,0.053,0.0432,0.055,0.0524,0.0547,0.0559,0.047,0,0,0,0,0]},{"header":{"parameterUnit":"m.s-1","parameterCategory":2,"la1":30.2991,"la2":30.254,"lo1":-89.0895,"lo2":-89.0444,"dy":0.0017,"dx":0.0017,"nx":28,"ny":28,"refTime":"2023-07-23T03:00:00:Z","depth":"2","parameterNumber":3,"parameterNumberName":"V-component_of_CURRENTS"},"data":[0,0,0,0,0,0,0,0,0,0,0,0,0,0,0,0,0,0,0,0,0,0,0,0,0,0,0,0,0,0,0,0,0,0,0,0,0,0,0,0,0,0,0,0,0,0,0,0,0,0,0,0,0,0,0,0,0,0,0.0324,0.0323,0,0.0222,0.0221,0.0219,0.0099,0.0098,0.0096,0.0094,-0.0104,-0.0108,-0.0111,0,0,0,0,0,0,0,0,0,0,0,0,0,0.0362,0.0362,0.0324,0.0323,0.0322,0.0222,0.0221,0.0219,0.01,0.0098,0.0096,0.0094,-0.0103,-0.0107,-0.0112,0,0,0,0,0,0,0,0,0,0,0,0,0,0.031,0.0362,0.0325,0.0252,0.0245,0.0222,0.0221,0.0219,0.01,0.0098,0.0095,0.0093,-0.0101,-0.0107,-0.0112,-0.0097,0,0,-0.0129,-0.0132,0,0,0,0,0,0,0,0,0.0313,0.0308,0.0264,0.0257,0.0249,0.0172,0.0161,0.0109,0.0101,0.0153,0.0094,0.0092,-0.0017,-0.003,-0.0045,-0.0107,-0.0115,-0.013,-0.0133,-0.0136,-0.0137,0,0,0,0,0,0,0,0.0317,0.0312,0.0282,0.0263,0.0254,0.0206,0.0196,0.0151,0.008,0.0148,0.014,0.0132,-0.0023,-0.0039,-0.0051,-0.0118,-0.013,-0.0135,-0.0138,-0.014,-0.0262,-0.0262,0,0,0,0,0,0,0.0339,0.0316,0.0285,0.0279,0.0277,0.0208,0.0196,0.0198,0.0082,0.0063,0.0134,0.0127,-0.0028,-0.0044,-0.0058,-0.0106,-0.0136,-0.0141,-0.0144,-0.0262,-0.0262,-0.0261,0,0,0,0,0,0,0.034,0.0338,0.0289,0.0296,0.0286,0.021,0.0212,0.0197,0.0159,0.0073,0.0051,0.011,-0.0031,-0.0051,-0.0115,-0.0113,-0.0144,-0.0149,-0.0262,-0.0262,-0.0262,-0.0164,0,0,0,0,0,0,0.0342,0.0339,0.0341,0.0298,0.0287,0.0273,0.0215,0.0197,0.0161,0.0149,0.0045,0.0025,-0.0034,-0.0106,-0.012,-0.0121,-0.0153,-0.0262,-0.0262,-0.0262,-0.0168,-0.0161,-0.0155,0,0,0,0,0,0.0344,0.0362,0.0343,0.0338,0.0295,0.0274,0.0264,0.0199,0.0162,0.0154,0.0078,0.0027,-0.0115,-0.011,-0.0127,-0.0129,-0.0262,-0.0262,-0.0262,-0.0171,-0.0162,-0.0155,0,0,0,0,0,0,0.0374,0.0351,0.0328,0.0336,0.0306,0.0254,0.0241,0.0203,0.014,0.012,0.0032,0.0008,-0.0047,-0.0098,-0.0091,-0.0164,-0.0197,-0.02,-0.0122,-0.0115,-0.0109,-0.008,-0.0158,0,0,0,0,0,0.0388,0.0398,0.036,0.0367,0.0353,0.0298,0.0278,0.024,0.0185,0.0153,0.0082,0.0006,-0.0051,-0.0092,-0.0149,-0.0185,-0.0215,-0.02,-0.0193,-0.0187,-0.0176,-0.0222,-0.0218,-0.026,-0.026,-0.026,0,0,0.0402,0.0392,0.0395,0.0374,0.0343,0.0331,0.0278,0.0256,0.0237,0.0144,0.0089,0.0028,-0.0055,-0.01,-0.0129,-0.0149,-0.0187,-0.0187,-0.0181,-0.0173,-0.0221,-0.0217,-0.0213,-0.026,-0.026,-0.026,0,0,0.0439,0.0425,0.0439,0.042,0.0386,0.0356,0.0351,0.0297,0.0258,0.0217,0.014,0.0085,-0.0005,-0.0062,-0.0103,-0.0093,-0.0147,-0.0117,-0.0067,-0.0111,-0.0108,-0.0105,-0.0113,-0.0112,-0.0118,-0.0118,-0.0118,0,0.0448,0.0462,0.0438,0.044,0.0426,0.037,0.037,0.0335,0.0265,0.0243,0.0207,0.0088,0.0016,-0.0038,-0.004,-0.0077,-0.01,-0.0087,-0.0101,-0.0099,-0.0098,-0.0107,-0.0107,-0.0113,-0.0114,-0.0114,-0.0115,0,0.0488,0.0491,0.0497,0.0483,0.047,0.0463,0.0418,0.0392,0.0345,0.0308,0.025,0.0163,0.0092,0.0061,0.001,-0.0019,-0.0034,-0.0081,-0.0113,-0.0087,-0.0099,-0.01,-0.0106,-0.0108,-0.011,-0.0111,0,0,0.0509,0.0523,0.0517,0.0519,0.0489,0.0482,0.0464,0.0433,0.0424,0.0356,0.0338,0.0241,0.0201,0.0154,0.0083,0.0042,0.0034,-0.0009,-0.0013,-0.0002,-0.0034,-0.0017,-0.0018,-0.0017,-0.0017,-0.0017,-0.0035,0,0.0531,0.0557,0.0556,0.0565,0.0564,0.0529,0.0522,0.0491,0.0456,0.0428,0.0347,0.0302,0.0233,0.0203,0.0154,0.0058,0.003,0.0046,-0.0074,-0.0076,-0.0054,-0.002,-0.0002,-0.0015,-0.0037,-0.0037,-0.0038,0,0.0544,0.0564,0.0584,0.0603,0.06,0.0599,0.0583,0.0576,0.0536,0.0511,0.0464,0.0404,0.0335,0.0273,0.0148,0.0161,0.008,0.0011,0.0007,-0.0012,-0.0063,-0.0052,-0.0018,-0.0041,-0.0041,-0.004,-0.004,0,0.0543,0.0573,0.0593,0.0593,0.0608,0.0609,0.0613,0.0592,0.0594,0.0564,0.0562,0.0479,0.0429,0.0322,0.0182,0.0164,0.0055,0.0004,-0.0048,-0.0047,-0.0072,-0.0073,-0.0071,-0.007,-0.007,-0.007,-0.007,0,0.0548,0.0557,0.0595,0.0597,0.0626,0.0632,0.0654,0.0647,0.0651,0.0662,0.0604,0.0587,0.0435,0.035,0.0224,0.0098,0.0085,-0.0019,-0.0051,-0.0035,-0.0032,-0.01,-0.0103,-0.0071,-0.0071,-0.0071,-0.0071,0,0.0522,0.0547,0.0571,0.0607,0.0619,0.0635,0.068,0.0707,0.0707,0.072,0.0714,0.0661,0.0555,0.0416,0.0245,0.0156,0.0028,-0.0018,0.0035,0.0011,-0.0048,-0.0046,-0.006,-0.0059,-0.0059,-0.0059,-0.0058,0,0.0508,0.052,0.0568,0.0594,0.0606,0.0643,0.0677,0.0713,0.0751,0.0757,0.0768,0.0692,0.0646,0.0445,0.0291,0.0127,0.0034,0.001,-0.0028,-0.0017,-0.0047,-0.0046,-0.0044,-0.0017,-0.0016,-0.0016,-0.0015,0,0.0485,0.0499,0.0528,0.0583,0.0625,0.0686,0.0739,0.0778,0.0821,0.0847,0.0865,0.0837,0.0684,0.0509,0.0298,0.0197,0.0044,0.0016,-0.0004,-0.0017,0.0023,-0.0006,-0.0007,-0.0011,-0.0011,-0.0012,-0.0012,-0.0012,0.0459,0.0482,0.0528,0.0581,0.0636,0.0715,0.077,0.0841,0.091,0.0955,0.093,0.0859,0.0603,0.0343,0.0209,0.0117,0.012,-0.0002,-0.0003,-0.0005,0.0008,0.0046,0.0022,0.0021,0.0021,0.0021,0.0021,0,0.0435,0.0475,0.0529,0.0606,0.0673,0.0701,0.0807,0.0878,0.0962,0.0963,0.0986,0.068,0.0507,0.0277,0.0171,0.0073,0.0093,0.0001,-0.0006,-0.0008,-0.0011,0.0001,0.0013,0.0013,0.0012,0.0012,0,0,0.0429,0.0475,0.0521,0.0625,0.0674,0.0773,0.0832,0.0929,0.0954,0.0939,0.0849,0.074,0.044,0.0255,0.0126,0.0087,0.0084,0.0104,0.0127,0.0137,0.0135,0.0009,0.0028,0,0,0,0,0]}],[{"header":{"parameterUnit":"m.s-1","parameterCategory":2,"la1":30.2991,"la2":30.254,"lo1":-89.0895,"lo2":-89.0444,"dy":0.0017,"dx":0.0017,"nx":28,"ny":28,"refTime":"2023-07-23T03:00:00:Z","depth":"4","parameterNumber":2,"parameterNumberName":"U-component_of_CURRENTS"},"data":[0,0,0,0,0,0,0,0,0,0,0,0,0,0,0,0,0,0,0,0,0,0,0,0,0,0,0,0,0,0,0,0,0,0,0,0,0,0,0,0,0,0,0,0,0,0,0,0,0,0,0,0,0,0,0,0,0,0,-0.0613,-0.0613,0,-0.063,-0.063,-0.0631,-0.0673,-0.0673,-0.0674,-0.0675,-0.0707,-0.0707,-0.0707,0,0,0,0,0,0,0,0,0,0,0,0,0,-0.0591,-0.0592,-0.0613,-0.0613,-0.0613,-0.063,-0.063,-0.0631,-0.0673,-0.0673,-0.0674,-0.0675,-0.0707,-0.0707,-0.0707,0,0,0,0,0,0,0,0,0,0,0,0,0,-0.0606,-0.0592,-0.0613,-0.0634,-0.0636,-0.063,-0.063,-0.0631,-0.0672,-0.0673,-0.0674,-0.0675,-0.0706,-0.0707,-0.0707,-0.069,0,0,-0.0708,-0.0709,0,0,0,0,0,0,0,0,-0.0605,-0.0607,-0.0631,-0.0632,-0.0634,-0.0648,-0.0634,-0.0651,-0.0672,-0.0661,-0.0675,-0.0676,-0.0686,-0.0688,-0.0693,-0.0692,-0.0693,-0.0708,-0.0709,-0.0709,-0.0709,0,0,0,0,0,0,0,-0.0604,-0.0606,-0.0622,-0.0631,-0.0633,-0.0633,-0.0637,-0.0638,-0.067,-0.0662,-0.0665,-0.0662,-0.0688,-0.0692,-0.0694,-0.0693,-0.0708,-0.0709,-0.0709,-0.0709,-0.0784,-0.0785,0,0,0,0,0,0,-0.0597,-0.0605,-0.0622,-0.0623,-0.0619,-0.0633,-0.0637,-0.0645,-0.067,-0.0674,-0.0661,-0.0664,-0.0691,-0.0693,-0.0695,-0.0803,-0.0709,-0.0709,-0.0709,-0.0782,-0.0784,-0.0786,0,0,0,0,0,0,-0.0597,-0.0599,-0.0621,-0.0612,-0.0614,-0.0632,-0.064,-0.0644,-0.0681,-0.0669,-0.0674,-0.0697,-0.0692,-0.0694,-0.0717,-0.08,-0.0709,-0.071,-0.078,-0.0783,-0.0785,-0.0938,0,0,0,0,0,0,-0.0596,-0.0599,-0.0613,-0.0612,-0.0615,-0.0639,-0.0639,-0.0644,-0.0675,-0.0679,-0.07,-0.0702,-0.0693,-0.0716,-0.0717,-0.0799,-0.071,-0.0778,-0.0781,-0.0784,-0.0931,-0.0946,-0.0958,0,0,0,0,0,-0.0596,-0.0617,-0.0614,-0.0616,-0.063,-0.064,-0.0642,-0.0659,-0.0676,-0.0696,-0.0706,-0.0703,-0.0739,-0.0717,-0.0718,-0.0802,-0.0776,-0.078,-0.0784,-0.0925,-0.0943,-0.0958,0,0,0,0,0,0,-0.0615,-0.0623,-0.062,-0.0642,-0.0646,-0.0646,-0.0672,-0.0677,-0.0702,-0.0717,-0.0711,-0.0713,-0.0762,-0.0748,-0.0724,-0.0829,-0.0763,-0.0767,-0.087,-0.0887,-0.09,-0.0902,-0.071,0,0,0,0,0,-0.0622,-0.0641,-0.064,-0.0656,-0.0669,-0.0675,-0.0686,-0.0693,-0.0705,-0.072,-0.0736,-0.0754,-0.0773,-0.0802,-0.0799,-0.0855,-0.0812,-0.0911,-0.0925,-0.0937,-0.0937,-0.0922,-0.0935,-0.0799,-0.0799,-0.0799,0,0,-0.0627,-0.0637,-0.0645,-0.0661,-0.0675,-0.0688,-0.0688,-0.0715,-0.0732,-0.0717,-0.077,-0.0789,-0.0789,-0.085,-0.0876,-0.086,-0.0957,-0.0942,-0.0953,-0.0946,-0.0928,-0.0941,-0.0953,-0.0802,-0.0801,-0.0801,0,0,-0.0645,-0.0669,-0.0689,-0.0698,-0.0717,-0.0721,-0.0736,-0.0758,-0.0785,-0.0825,-0.0824,-0.0889,-0.092,-0.0951,-0.0966,-0.1049,-0.1011,-0.1068,-0.117,-0.1157,-0.1168,-0.1177,-0.1156,-0.1162,-0.11,-0.11,-0.11,0,-0.0654,-0.0677,-0.0694,-0.0714,-0.0728,-0.0741,-0.0762,-0.0781,-0.0807,-0.0843,-0.086,-0.0959,-0.097,-0.1054,-0.1101,-0.1087,-0.106,-0.1115,-0.1176,-0.1184,-0.1191,-0.1167,-0.1171,-0.1108,-0.1107,-0.1106,-0.1106,0,-0.067,-0.0699,-0.0721,-0.0747,-0.0764,-0.0791,-0.0808,-0.0843,-0.0892,-0.0927,-0.1032,-0.1073,-0.1142,-0.118,-0.1176,-0.1259,-0.1218,-0.1178,-0.1138,-0.1214,-0.1184,-0.1186,-0.1119,-0.1117,-0.1114,-0.1112,0,0,-0.0674,-0.0722,-0.0735,-0.0749,-0.079,-0.0799,-0.0843,-0.0894,-0.0954,-0.103,-0.1135,-0.1221,-0.1285,-0.1304,-0.1337,-0.1364,-0.1413,-0.1318,-0.1314,-0.1304,-0.1382,-0.1225,-0.1211,-0.1387,-0.1388,-0.1388,-0.1347,0,-0.0688,-0.0726,-0.0752,-0.0789,-0.0811,-0.0842,-0.0886,-0.0933,-0.1013,-0.1118,-0.1211,-0.1308,-0.1319,-0.1395,-0.1431,-0.1398,-0.1423,-0.1427,-0.1302,-0.1298,-0.1155,-0.121,-0.1391,-0.1348,-0.1349,-0.1349,-0.1349,0,-0.0702,-0.0723,-0.0766,-0.0817,-0.0836,-0.0875,-0.0964,-0.1015,-0.1146,-0.1218,-0.1353,-0.14,-0.1494,-0.1486,-0.1489,-0.1491,-0.1456,-0.143,-0.1426,-0.1222,-0.1144,-0.125,-0.1352,-0.1351,-0.1351,-0.1351,-0.1351,0,-0.0688,-0.074,-0.0777,-0.0791,-0.0848,-0.0899,-0.0968,-0.1078,-0.1146,-0.1313,-0.1376,-0.1484,-0.1539,-0.1526,-0.1475,-0.1483,-0.1442,-0.1431,-0.1259,-0.1247,-0.1334,-0.1324,-0.1422,-0.1422,-0.1422,-0.1422,-0.1422,0,-0.0694,-0.0719,-0.0787,-0.0804,-0.0868,-0.0934,-0.1055,-0.1126,-0.1279,-0.1343,-0.1459,-0.1467,-0.1544,-0.1517,-0.1489,-0.1362,-0.1438,-0.1273,-0.1225,-0.14,-0.1398,-0.1335,-0.1326,-0.1421,-0.1421,-0.1421,-0.1421,0,-0.0667,-0.0712,-0.0743,-0.0824,-0.0866,-0.093,-0.1093,-0.1152,-0.1308,-0.1395,-0.1434,-0.1467,-0.1361,-0.1397,-0.1345,-0.1332,-0.1254,-0.119,-0.1375,-0.1338,-0.1075,-0.1074,-0.1007,-0.1001,-0.0996,-0.0992,-0.0988,0,-0.0655,-0.0676,-0.0751,-0.078,-0.0834,-0.0951,-0.1004,-0.1166,-0.1196,-0.1313,-0.1283,-0.1264,-0.1245,-0.1064,-0.1102,-0.1052,-0.1033,-0.1064,-0.1091,-0.1071,-0.1033,-0.104,-0.1045,-0.098,-0.0979,-0.0977,-0.0976,0,-0.0619,-0.0657,-0.0677,-0.0739,-0.0796,-0.0831,-0.0921,-0.0932,-0.1058,-0.1203,-0.1089,-0.107,-0.0949,-0.0886,-0.0875,-0.0834,-0.1097,-0.1012,-0.1023,-0.1048,-0.1038,-0.1006,-0.1018,-0.0959,-0.0961,-0.0963,-0.0964,0,-0.0592,-0.0589,-0.0629,-0.0676,-0.0726,-0.0682,-0.0744,-0.0725,-0.078,-0.0906,-0.0824,-0.081,-0.0854,-0.076,-0.0718,-0.0699,-0.0689,-0.0752,-0.0776,-0.0796,-0.075,-0.071,-0.0485,0,0,0,0,0,-0.0556,-0.0544,-0.0567,-0.0562,-0.0596,-0.0619,-0.0646,-0.0685,-0.0787,-0.0664,-0.0771,-0.0636,-0.059,-0.0556,-0.0482,-0.0602,-0.069,-0.0525,-0.0775,-0.0863,-0.0883,-0.0851,0,0,0,0,0,0,-0.0527,-0.0536,-0.0528,-0.0467,-0.0452,-0.0432,-0.0441,-0.0482,-0.0406,-0.0534,-0.0443,-0.0626,-0.0506,-0.0596,-0.0471,-0.048,-0.0634,-0.0556,-0.0556,-0.0851,-0.087,-0.0886,-0.086,0,0,0,0,0]},{"header":{"parameterUnit":"m.s-1","parameterCategory":2,"la1":30.2991,"la2":30.254,"lo1":-89.0895,"lo2":-89.0444,"dy":0.0017,"dx":0.0017,"nx":28,"ny":28,"refTime":"2023-07-23T03:00:00:Z","depth":"4","parameterNumber":3,"parameterNumberName":"V-component_of_CURRENTS"},"data":[0,0,0,0,0,0,0,0,0,0,0,0,0,0,0,0,0,0,0,0,0,0,0,0,0,0,0,0,0,0,0,0,0,0,0,0,0,0,0,0,0,0,0,0,0,0,0,0,0,0,0,0,0,0,0,0,0,0,0.0097,0.0097,0,0.013,0.0131,0.0131,0.0187,0.0188,0.0189,0.019,0.027,0.0271,0.0273,0,0,0,0,0,0,0,0,0,0,0,0,0,0.0101,0.0101,0.0097,0.0097,0.0097,0.013,0.0131,0.0132,0.0187,0.0188,0.0189,0.019,0.0269,0.0271,0.0273,0,0,0,0,0,0,0,0,0,0,0,0,0,0.0116,0.0101,0.0096,0.0127,0.013,0.013,0.0131,0.0132,0.0187,0.0188,0.0189,0.0191,0.0269,0.0271,0.0273,0.0261,0,0,0.0279,0.028,0,0,0,0,0,0,0,0,0.0115,0.0116,0.0122,0.0125,0.0128,0.0154,0.0162,0.0176,0.0187,0.0168,0.019,0.0191,0.0233,0.0238,0.0244,0.0265,0.0268,0.0279,0.0281,0.0282,0.0282,0,0,0,0,0,0,0,0.0114,0.0115,0.0112,0.0122,0.0126,0.0146,0.0149,0.0165,0.0196,0.017,0.0173,0.0173,0.0235,0.0242,0.0247,0.027,0.0279,0.0281,0.0282,0.0283,0.0304,0.0303,0,0,0,0,0,0,0.0102,0.0114,0.0111,0.0113,0.0122,0.0145,0.0149,0.0146,0.0195,0.0202,0.0172,0.0175,0.0238,0.0244,0.025,0.0272,0.0282,0.0283,0.0285,0.0305,0.0304,0.0303,0,0,0,0,0,0,0.0102,0.0102,0.011,0.0113,0.0115,0.0143,0.014,0.0146,0.0163,0.0195,0.0205,0.0183,0.0239,0.0247,0.0259,0.0274,0.0284,0.0286,0.0306,0.0304,0.0304,0.0294,0,0,0,0,0,0,0.0102,0.0101,0.0096,0.0111,0.0114,0.0113,0.0139,0.0146,0.0159,0.0164,0.0208,0.0216,0.0241,0.0255,0.0261,0.0277,0.0288,0.0306,0.0305,0.0304,0.0295,0.0293,0.0291,0,0,0,0,0,0.0102,0.0093,0.0095,0.0095,0.0105,0.0113,0.0116,0.0142,0.0158,0.0163,0.0184,0.0215,0.0252,0.0256,0.0263,0.028,0.0307,0.0305,0.0304,0.0296,0.0293,0.0291,0,0,0,0,0,0,0.0091,0.0098,0.0101,0.0094,0.0102,0.0122,0.0126,0.0141,0.016,0.0167,0.0202,0.0211,0.0226,0.0244,0.0248,0.0279,0.0286,0.0286,0.0278,0.0276,0.0273,0.027,0.029,0,0,0,0,0,0.0082,0.0078,0.0088,0.008,0.0085,0.0104,0.011,0.0125,0.0142,0.0153,0.018,0.0204,0.0221,0.0241,0.0253,0.027,0.0296,0.0285,0.0283,0.0281,0.028,0.0326,0.0329,0.0298,0.0298,0.0298,0,0,0.007,0.0076,0.0071,0.0077,0.0087,0.0087,0.0112,0.012,0.0118,0.0157,0.0167,0.0192,0.0218,0.0236,0.0246,0.0259,0.0301,0.0279,0.0278,0.0277,0.0325,0.0328,0.0331,0.0297,0.0297,0.0297,0,0,0.0056,0.0055,0.0054,0.0056,0.0067,0.0075,0.0077,0.0096,0.0107,0.0112,0.014,0.0169,0.0194,0.0223,0.024,0.0229,0.0278,0.0239,0.0242,0.0287,0.029,0.0294,0.0328,0.0334,0.025,0.025,0.025,0,0.0046,0.0041,0.0053,0.0053,0.0047,0.0068,0.0061,0.007,0.0089,0.0085,0.0112,0.0152,0.0188,0.0212,0.0222,0.0228,0.0258,0.0255,0.0287,0.0291,0.0294,0.0328,0.0336,0.025,0.025,0.025,0.025,0,0.0033,0.0027,0.0025,0.0028,0.0023,0.0019,0.0026,0.0025,0.004,0.0048,0.0068,0.0121,0.0149,0.0174,0.0205,0.0248,0.0261,0.0272,0.0299,0.0297,0.0332,0.034,0.0249,0.0249,0.0249,0.0249,0,0,0.0021,0.0018,0.0018,0.0005,0.0006,-0.0003,-0.0014,-0.0023,-0.0045,0.0003,-0.0002,0.0065,0.0103,0.0124,0.0177,0.0237,0.0305,0.0278,0.0281,0.0321,0.0405,0.0254,0.0249,0.0332,0.0333,0.0334,0.0418,0,0.0011,-0.0001,-0.0002,-0.0031,-0.0041,-0.0046,-0.007,-0.008,-0.0079,-0.008,-0.001,0.0009,0.008,0.0111,0.0182,0.0262,0.0326,0.028,0.0392,0.0395,0.0269,0.0252,0.0339,0.0425,0.0426,0.0428,0.0429,0,0.0004,-0.0007,-0.0031,-0.0075,-0.0082,-0.0104,-0.0154,-0.0168,-0.0172,-0.0164,-0.0119,-0.0074,0.0022,0.0085,0.0241,0.0213,0.0312,0.0385,0.039,0.0256,0.0257,0.0426,0.0444,0.0442,0.0441,0.044,0.0439,0,-0.001,-0.0032,-0.0057,-0.0069,-0.0109,-0.0138,-0.0164,-0.0197,-0.0226,-0.0206,-0.0212,-0.0114,-0.0059,0.0082,0.0219,0.025,0.0374,0.0428,0.0385,0.0376,0.0498,0.0493,0.0542,0.0542,0.0542,0.0542,0.0541,0,-0.0022,-0.0046,-0.007,-0.0088,-0.015,-0.0166,-0.0236,-0.0253,-0.0276,-0.0317,-0.0242,-0.0243,-0.0051,0.0029,0.0186,0.0274,0.0346,0.0372,0.038,0.0489,0.0483,0.0503,0.0498,0.0545,0.0544,0.0544,0.0543,0,-0.0035,-0.0043,-0.0083,-0.0131,-0.0157,-0.0201,-0.0281,-0.0333,-0.0342,-0.0383,-0.0369,-0.0322,-0.0241,-0.0092,0.0106,0.0191,0.0316,0.0334,0.0407,0.042,0.0313,0.0306,0.0319,0.0314,0.031,0.0306,0.0303,0,-0.0043,-0.0059,-0.0117,-0.0161,-0.0188,-0.0257,-0.0318,-0.0354,-0.0397,-0.0444,-0.0455,-0.0423,-0.0379,-0.0198,-0.0065,0.0148,0.0188,0.026,0.0328,0.0279,0.0288,0.0287,0.0285,0.0297,0.0296,0.0295,0.0294,0,-0.0067,-0.0082,-0.0117,-0.0195,-0.0262,-0.0346,-0.0417,-0.0439,-0.0483,-0.0506,-0.0499,-0.0444,-0.0402,-0.0252,-0.0138,0.0033,0.0218,0.022,0.0232,0.0297,0.0253,0.0265,0.0269,0.028,0.0282,0.0283,0.0284,0,-0.009,-0.0119,-0.0161,-0.0227,-0.0326,-0.0403,-0.0433,-0.0469,-0.0499,-0.0511,-0.053,-0.0471,-0.0437,-0.0321,-0.0207,-0.0096,-0.0025,0.0084,0.0106,0.0122,0.0015,-0.0072,-0.015,0,0,0,0,0,-0.0111,-0.0136,-0.02,-0.0272,-0.0369,-0.0421,-0.0498,-0.0514,-0.0542,-0.0523,-0.051,-0.0464,-0.0365,-0.0338,-0.0241,-0.0291,-0.0029,-0.0181,0.0106,0.0201,0.0217,0.0107,0,0,0,0,0,0,-0.0132,-0.0177,-0.0191,-0.0294,-0.0354,-0.0459,-0.0504,-0.0519,-0.0487,-0.0497,-0.0425,-0.0436,-0.0322,-0.0396,-0.0232,-0.022,-0.0024,-0.0146,-0.0144,0.0192,0.0207,0.022,0.0112,0,0,0,0,0]}]]